DELTA 1 DEB

Satellite information

Favourite Embed

Satellite Type and Status

DEBRISIN ORBIT

Key statistics

Satellite DELTA 1 DEB at a glance.

Uptime

19451

Days in orbit

Revolutions

≈ 13.4

Per day

Orbit

SSO

Sun Synchronous Orbit

Inclination

98.9

Latest

Satellite identification and parameters

Extended collection of information and parameters for DELTA 1 DEB.

Object identification

Identified? True

Debris? True

Object name: DELTA 1 DEB

International designator: 1972-058KC

Object number (NORAD): 42569

Object ID (CCSDS): 42569

Country: UNITED STATES OF AMERICA (US)

Current information (Y/N): Y

RCS size: SMALL

Orbital parameters

Period: 107.073 minutes

Inclination: 98.8824 deg

SMA: 7469.289 km

Apoapsis: 1351.717 km

Periapsis: 830.59 km

RAAN: 77.6232 deg

Eccentricy: 0.03488461

Argument of periapsis: 267.4052 deg

Mean anomaly: 88.7113 deg

Mean motion: 13.44881129 rev/day

Mean motion (dot): 0.00003362 rev/day2

B* drag term: 0.0040166135 1/REarth

Two-line elements (TLE)

Creation date: Oct. 24, 2025, 2:48 a.m.

Reference frame: TEME

Reference center: EARTH

Epoch: Oct. 23, 2025, 8:11 p.m. UTC

TLE line 0: 0 DELTA 1 DEB

TLE line 1: 1 42569U 72058KC 25296.84150691 .00003362 00000-0 40166-2 0 9999

TLE line 2: 2 42569 98.8824 77.6232 0348846 267.4052 88.7113 13.44881129569934

Live tracking on map

Real-time ground track for satellite DELTA 1 DEB.

In-orbit conjunctions

A list of the most updated potential collisions computed for object DELTA 1 DEB.

Target Orbit TCA Probability of collision Miss distance Type
OBJECT A LEO 2025-02-15 18:30:05 0.0001141557 616.0 (m) UNKNOWN
CZ-6A DEB SSO 2025-02-04 00:39:35 0.0001577385 182.0 (m) DEBRIS
SL-3 R/B LEO 2024-10-26 03:35:49 0.0002049518 495.0 (m) ROCKET BODY

Associated space launch

Earth observation satellite

DELTA 1 DEB was lifted into orbit during the mission ‘Delta 0900 | Landsat 1’, on board a Delta 0900 space rocket.

The launch took place on July 23, 1972, 6:06 p.m. from Space Launch Complex 2W.

For more information about the launch, click the button.

Launch to space Delta 0900 | Landsat 1
Delta 0900 | Landsat 1

Agency: N/A

Status: Launch Successful

Launch date: July 23, 1972, 6:06 p.m. UTC

Rocket: Delta 0900

Launch pad: Space Launch Complex 2W

Location: Vandenberg SFB, CA, USA

...

Latest news about this satellite

There are no fresh news available about this satellite. Check back as we update our databases every day.


Newsletter sign-up

Weekly statistics, charts and insights to help you stay on top of the space industry.